Time,TemperatureF,DewpointF,PressureIn,WindDirection,WindDirectionDegrees,WindSpeedMPH,WindSpeedGustMPH,Humidity,HourlyPrecipIn,Conditions,Clouds,dailyrainin,SoftwareType,DateUTC
2013-04-13 12:12:00,82.6,70.9,-100.00,North,0,4.0,-999.0,68,-99.99,,,0.76,meteohub,2013-04-13 22:12:00,
2013-04-13 12:13:00,82.8,70.7,-100.00,East,90,5.0,-999.0,67,-99.99,,,0.00,meteohub,2013-04-13 22:13:00,
2013-04-13 12:17:00,82.6,70.5,-100.00,South,180,3.0,-999.0,67,0.00,,,0.00,meteohub,2013-04-13 22:17:00,
2013-04-13 12:22:00,82.4,70.0,-100.00,SE,135,5.0,5.0,66,0.00,,,0.00,meteohub,2013-04-13 22:22:00,
2013-04-13 12:27:00,82.0,69.6,-100.00,East,90,4.0,5.0,66,0.00,,,0.00,meteohub,2013-04-13 22:27:00,
2013-04-13 12:32:00,82.0,69.6,-100.00,East,90,4.0,5.0,66,0.00,,,0.00,meteohub,2013-04-13 22:32:00,
2013-04-13 12:37:00,82.0,69.6,-100.00,East,90,4.0,5.0,66,0.00,,,0.00,meteohub,2013-04-13 22:37:00,
2013-04-13 12:43:00,82.8,70.2,-100.00,North,0,5.0,5.0,66,0.00,,,0.00,meteohub,2013-04-13 22:43:00,
2013-04-13 12:49:00,82.8,70.2,-100.00,North,0,5.0,5.0,66,0.00,,,0.00,meteohub,2013-04-13 22:49:00,
2013-04-13 12:54:00,82.8,70.2,-100.00,North,0,5.0,5.0,66,0.00,,,0.00,meteohub,2013-04-13 22:54:00,
2013-04-13 13:07:00,83.3,71.6,-100.00,East,90,5.0,-999.0,68,0.00,,,0.00,meteohub,2013-04-13 23:07:00,
2013-04-13 13:12:00,83.7,72.3,-100.00,North,0,5.0,-999.0,69,0.00,,,0.00,meteohub,2013-04-13 23:12:00,
2013-04-13 13:17:00,83.8,72.5,-100.00,East,90,3.0,7.0,69,0.00,,,0.00,meteohub,2013-04-13 23:17:00,
2013-04-13 13:23:00,83.8,72.5,-100.00,East,90,3.0,7.0,69,0.00,,,0.00,meteohub,2013-04-13 23:23:00,
2013-04-13 13:28:00,84.2,72.0,-100.00,North,0,4.0,7.0,67,0.00,,,0.00,meteohub,2013-04-13 23:28:00,
2013-04-13 13:33:00,84.6,72.0,-100.00,East,90,4.0,4.0,66,0.00,,,0.00,meteohub,2013-04-13 23:33:00,
2013-04-13 13:38:00,84.6,72.0,-100.00,East,90,4.0,4.0,66,0.00,,,0.00,meteohub,2013-04-13 23:38:00,
2013-04-13 13:43:00,84.6,72.0,-100.00,East,90,4.0,4.0,66,0.00,,,0.00,meteohub,2013-04-13 23:43:00,
2013-04-13 13:49:00,85.8,71.8,-100.00,NW,315,5.0,5.0,63,0.00,,,0.00,meteohub,2013-04-13 23:49:00,
2013-04-13 13:54:00,85.8,71.8,-100.00,NW,315,5.0,5.0,63,0.00,,,0.00,meteohub,2013-04-13 23:54:00,
2013-04-13 13:59:00,86.2,72.5,-100.00,NE,45,4.0,5.0,64,0.00,,,0.00,meteohub,2013-04-13 23:59:00,
2013-04-13 14:04:00,86.2,73.0,-100.00,NE,45,6.0,6.0,65,0.00,,,0.00,meteohub,2013-04-14 00:04:00,
2013-04-13 14:10:00,86.2,73.0,-100.00,NE,45,6.0,6.0,65,0.00,,,0.00,meteohub,2013-04-14 00:10:00,
2013-04-13 14:15:00,85.5,73.8,-100.00,NE,45,3.0,6.0,68,0.00,,,0.00,meteohub,2013-04-14 00:15:00,
2013-04-13 14:20:00,85.1,73.4,-100.00,SE,135,5.0,6.0,68,0.00,,,0.00,meteohub,2013-04-14 00:20:00,
2013-04-13 14:25:00,85.1,73.4,-100.00,SE,135,5.0,6.0,68,0.00,,,0.00,meteohub,2013-04-14 00:25:00,
2013-04-13 14:30:00,85.1,73.4,-100.00,SE,135,5.0,5.0,68,0.00,,,0.00,meteohub,2013-04-14 00:30:00,
2013-04-13 14:55:00,82.0,71.8,-100.00,NE,45,4.0,-999.0,71,0.00,,,0.00,meteohub,2013-04-14 00:55:00,
2013-04-13 15:00:00,82.4,72.0,-100.00,North,0,5.0,-999.0,71,0.00,,,0.00,meteohub,2013-04-14 01:00:00,
2013-04-13 15:05:00,82.0,71.8,-100.00,NE,45,7.0,7.0,71,0.00,,,0.00,meteohub,2013-04-14 01:05:00,
2013-04-13 15:10:00,81.7,71.4,-100.00,North,0,4.0,7.0,71,0.00,,,0.00,meteohub,2013-04-14 01:10:00,
2013-04-13 15:15:00,81.7,71.4,-100.00,North,0,4.0,7.0,71,0.00,,,0.00,meteohub,2013-04-14 01:15:00,
2013-04-13 15:20:00,80.6,70.7,-100.00,North,0,4.0,7.0,72,0.00,,,0.00,meteohub,2013-04-14 01:20:00,
2013-04-13 15:25:00,80.4,70.9,-100.00,NE,45,3.0,4.0,73,0.00,,,0.00,meteohub,2013-04-14 01:25:00,
2013-04-13 15:30:00,80.6,71.6,-100.00,North,0,2.0,4.0,74,0.00,,,0.00,meteohub,2013-04-14 01:30:00,
2013-04-13 15:36:00,80.6,71.6,-100.00,North,0,2.0,4.0,74,0.00,,,0.00,meteohub,2013-04-14 01:36:00,
2013-04-13 15:42:00,81.3,72.3,-100.00,North,0,4.0,4.0,74,0.00,,,0.00,meteohub,2013-04-14 01:42:00,
2013-04-13 15:47:00,81.5,72.0,-100.00,East,90,4.0,4.0,73,0.00,,,0.00,meteohub,2013-04-14 01:47:00,
2013-04-13 15:52:00,81.5,72.0,-100.00,East,90,4.0,4.0,73,0.00,,,0.00,meteohub,2013-04-14 01:52:00,
2013-04-13 15:57:00,81.5,72.0,-100.00,East,90,4.0,4.0,73,0.00,,,0.00,meteohub,2013-04-14 01:57:00,
2013-04-13 16:02:00,83.1,73.6,-100.00,North,0,8.0,8.0,73,0.00,,,0.00,meteohub,2013-04-14 02:02:00,
2013-04-13 16:07:00,83.1,73.2,-100.00,NNE,23,4.0,8.0,72,0.00,,,0.00,meteohub,2013-04-14 02:07:00,
2013-04-13 16:12:00,82.9,72.5,-100.00,East,90,7.0,8.0,71,0.00,,,0.00,meteohub,2013-04-14 02:12:00,
2013-04-13 16:17:00,82.9,72.5,-100.00,East,90,7.0,8.0,71,0.00,,,0.00,meteohub,2013-04-14 02:17:00,
2013-04-13 16:22:00,81.9,72.0,-100.00,North,0,4.0,7.0,72,0.00,,,0.00,meteohub,2013-04-14 02:22:00,
2013-04-13 16:27:00,81.5,71.6,-100.00,North,0,2.0,7.0,72,0.00,,,0.00,meteohub,2013-04-14 02:27:00,
2013-04-13 16:33:00,81.5,71.6,-100.00,North,0,2.0,7.0,72,0.00,,,0.00,meteohub,2013-04-14 02:33:00,
2013-04-13 16:38:00,80.2,71.2,-100.00,NE,45,2.0,6.0,74,0.00,,,0.00,meteohub,2013-04-14 02:38:00,
2013-04-13 16:43:00,79.9,70.5,-100.00,North,0,3.0,4.0,73,0.00,,,0.00,meteohub,2013-04-14 02:43:00,
2013-04-13 16:48:00,79.9,70.5,-100.00,North,0,3.0,4.0,73,0.00,,,0.00,meteohub,2013-04-14 02:48:00,
2013-04-13 16:53:00,79.7,70.3,-100.00,East,90,3.0,4.0,73,0.00,,,0.00,meteohub,2013-04-14 02:53:00,
2013-04-13 17:04:00,79.3,70.3,-100.00,NE,45,4.0,4.0,74,0.00,,,0.00,meteohub,2013-04-14 03:04:00,
2013-04-13 17:10:00,79.2,70.2,-100.00,East,90,4.0,4.0,74,0.00,,,0.00,meteohub,2013-04-14 03:10:00,
2013-04-13 17:16:00,79.2,70.2,-100.00,NW,315,3.0,4.0,74,0.00,,,0.00,meteohub,2013-04-14 03:16:00,
2013-04-13 17:21:00,79.0,70.0,-100.00,NE,45,3.0,4.0,74,0.00,,,0.00,meteohub,2013-04-14 03:21:00,
2013-04-13 17:26:00,79.0,70.0,-100.00,North,0,4.0,4.0,74,0.00,,,0.00,meteohub,2013-04-14 03:26:00,
2013-04-13 17:32:00,78.8,70.2,-100.00,North,0,3.0,5.0,75,0.00,,,0.00,meteohub,2013-04-14 03:32:00,
2013-04-13 17:37:00,78.6,70.0,-100.00,NE,45,4.0,5.0,75,0.00,,,0.00,meteohub,2013-04-14 03:37:00,
2013-04-13 17:42:00,78.4,69.8,-100.00,North,0,5.0,5.0,75,0.00,,,0.00,meteohub,2013-04-14 03:42:00,
2013-04-13 17:47:00,78.4,70.2,-100.00,East,90,4.0,5.0,76,0.00,,,0.00,meteohub,2013-04-14 03:47:00,
2013-04-13 17:52:00,78.4,70.2,-100.00,NE,45,2.0,5.0,76,0.00,,,0.00,meteohub,2013-04-14 03:52:00,
2013-04-13 17:57:00,78.4,70.2,-100.00,NE,45,2.0,5.0,76,0.00,,,0.00,meteohub,2013-04-14 03:57:00,
2013-04-13 18:00:00,78.4,70.2,-100.00,NE,45,2.0,4.0,76,0.00,,,0.00,meteohub,2013-04-14 04:00:00,
2013-04-13 18:01:00,78.4,70.2,-100.00,NE,45,2.0,4.0,76,0.00,,,0.00,meteohub,2013-04-14 04:01:00,
2013-04-13 18:02:00,78.4,70.2,-100.00,NE,45,2.0,4.0,76,0.00,,,0.00,meteohub,2013-04-14 04:02:00,
2013-04-13 21:33:00,78.8,70.2,-100.00,East,90,3.0,-999.0,75,-99.99,,,0.00,meteohub,2013-04-14 07:33:00,
2013-04-13 21:38:00,73.8,65.3,-100.00,SW,225,2.0,3.0,75,0.00,,,0.00,meteohub,2013-04-14 07:38:00,
2013-04-13 21:43:00,73.8,65.3,-100.00,SW,225,1.0,3.0,75,0.00,,,0.00,meteohub,2013-04-14 07:43:00,
2013-04-13 21:48:00,73.9,65.5,-100.00,SW,225,2.0,3.0,75,0.00,,,0.00,meteohub,2013-04-14 07:48:00,
2013-04-13 21:54:00,74.1,65.7,-100.00,SW,225,2.0,2.0,75,0.00,,,0.00,meteohub,2013-04-14 07:54:00,
2013-04-13 21:59:00,74.1,65.7,-100.00,SW,225,1.0,2.0,75,0.00,,,0.00,meteohub,2013-04-14 07:59:00,
2013-04-13 22:04:00,74.3,65.8,-100.00,SW,225,2.0,2.0,75,0.00,,,0.00,meteohub,2013-04-14 08:04:00,
2013-04-13 22:09:00,74.3,65.8,-100.00,SW,225,2.0,2.0,75,0.00,,,0.00,meteohub,2013-04-14 08:09:00,
2013-04-13 22:14:00,74.3,65.8,-100.00,North,0,1.0,2.0,75,0.00,,,0.00,meteohub,2013-04-14 08:14:00,
2013-04-13 22:20:00,74.1,65.7,-100.00,North,0,1.0,2.0,75,0.00,,,0.00,meteohub,2013-04-14 08:20:00,
2013-04-13 22:25:00,74.1,65.7,-100.00,SW,225,0.0,2.0,75,0.00,,,0.00,meteohub,2013-04-14 08:25:00,
2013-04-13 22:30:00,73.9,65.5,-100.00,SW,225,1.0,2.0,75,0.00,,,0.00,meteohub,2013-04-14 08:30:00,
2013-04-13 22:35:00,73.9,65.8,-100.00,SE,135,1.0,2.0,76,0.00,,,0.00,meteohub,2013-04-14 08:35:00,
2013-04-13 22:41:00,73.8,65.7,-100.00,SW,225,2.0,2.0,76,0.00,,,0.00,meteohub,2013-04-14 08:41:00,
2013-04-13 22:46:00,73.8,65.7,-100.00,SW,225,1.0,2.0,76,0.00,,,0.00,meteohub,2013-04-14 08:46:00,
2013-04-13 22:51:00,73.8,65.7,-100.00,SW,225,1.0,2.0,76,0.00,,,0.00,meteohub,2013-04-14 08:51:00,
2013-04-13 22:57:00,73.6,65.8,-100.00,SW,225,1.0,2.0,77,0.00,,,0.00,meteohub,2013-04-14 08:57:00,
2013-04-13 23:02:00,73.6,65.5,-100.00,East,90,1.0,2.0,76,0.00,,,0.00,meteohub,2013-04-14 09:02:00,
2013-04-13 23:07:00,73.4,65.7,-100.00,NW,315,2.0,2.0,77,0.00,,,0.00,meteohub,2013-04-14 09:07:00,
2013-04-13 23:12:00,73.4,65.7,-100.00,NE,45,2.0,2.0,77,0.00,,,0.00,meteohub,2013-04-14 09:12:00,
2013-04-13 23:17:00,73.4,65.7,-100.00,NE,45,1.0,2.0,77,0.00,,,0.00,meteohub,2013-04-14 09:17:00,
2013-04-13 23:22:00,73.4,65.7,-100.00,SE,135,1.0,2.0,77,0.00,,,0.00,meteohub,2013-04-14 09:22:00,
2013-04-13 23:27:00,73.4,65.7,-100.00,SW,225,2.0,2.0,77,0.00,,,0.00,meteohub,2013-04-14 09:27:00,
2013-04-13 23:32:00,73.6,65.8,-100.00,SW,225,2.0,3.0,77,0.00,,,0.00,meteohub,2013-04-14 09:32:00,
2013-04-13 23:37:00,73.6,65.5,-100.00,SW,225,2.0,3.0,76,0.00,,,0.00,meteohub,2013-04-14 09:37:00,
2013-04-13 23:43:00,73.6,65.5,-100.00,East,90,2.0,3.0,76,0.00,,,0.00,meteohub,2013-04-14 09:43:00,
2013-04-13 23:48:00,73.4,65.3,-100.00,North,0,2.0,2.0,76,0.00,,,0.00,meteohub,2013-04-14 09:48:00,
2013-04-13 23:53:00,73.2,64.8,-100.00,NE,45,2.0,2.0,75,0.00,,,0.00,meteohub,2013-04-14 09:53:00,
2013-04-13 23:58:00,73.2,65.1,-100.00,South,180,0.0,2.0,76,0.00,,,0.00,meteohub,2013-04-14 09:58:00,